Weather History for Orange City, IA

Change the Weather History Date:

Wednesday, October 5, 2011

  Actual Average Record
Temperature  
Mean Temperature 72 °F -  
Max Temperature 84 °F 68 °F 84 °F (2011)
Min Temperature 60 °F 45 °F 26 °F (1952)
Cooling Degree Days 7    
Growing Degree Days 22 (Base 50)    
Moisture  
Dew Point 25 °F    
Average Humidity 24    
Maximum Humidity 45    
Minimum Humidity 4    
Precipitation  
Precipitation 0.00 in - - ()
Sea Level Pressure  
Sea Level Pressure 30.02 in    
Wind  
Wind Speed 10 mph (South)    
Max Wind Speed 23 mph    
Max Gust Speed 29 mph    
Visibility 10 miles    
Events      
Averages and records for this station are not official NWS values.
T = Trace of Precipitation, MM = Missing Value Source: NWS Daily Summary

Daily Weather History Graph

Daily Weather History Graph

Search for Another Location

Airport:

Trip Planner

Search our weather history database for the weather conditions in past years. The results will help you decide how hot, cold, wet, or windy it might be!

Date:

Astronomy

Oct. 05, 2011 Rise Set
Actual Time 7:25 AM CDT 6:58 PM CDT
Civil Twilight 6:57 AM CDT 7:27 PM CDT
Nautical Twilight 6:24 AM CDT 7:59 PM CDT
Astronomical Twilight 5:51 AM CDT 8:33 PM CDT
Moon 3:47 PM CDT (10/5) 1:04 AM CDT (10/5)
Length of Visible Light 12h 29m
Length of Day
11h 33m
Waxing Gibbous, 66% of the Moon is Illuminated
Oct 5
Waxing Gibbous
Oct 11
Full
Oct 19
Last Quarter
Oct 26
New
Nov 2
First Quarter

Hourly Weather History & Observations

Time (CDT) Temp. Dew Point Humidity Pressure Visibility Wind Dir Wind Speed Gust Speed Precip Events Conditions
12:15 AM 64.4 °F 41.0 °F 42% 30.04 in 10.0 mi South 6.9 mph - N/A   Clear
12:35 AM 66.2 °F 41.0 °F 40% 30.04 in 10.0 mi South 8.1 mph - N/A   Clear
12:55 AM 66.2 °F 41.0 °F 40% 30.04 in 10.0 mi South 8.1 mph - N/A   Clear
1:15 AM 64.4 °F 41.0 °F 42% 30.04 in 10.0 mi SSE 8.1 mph - N/A   Clear
1:35 AM 64.4 °F 41.0 °F 42% 30.04 in 10.0 mi South 8.1 mph - N/A   Clear
2:15 AM 62.6 °F 41.0 °F 45% 30.04 in 10.0 mi SSE 6.9 mph - N/A   Clear
2:35 AM 64.4 °F 39.2 °F 40% 30.04 in 10.0 mi South 9.2 mph - N/A   Clear
2:55 AM 64.4 °F 41.0 °F 42% 30.04 in 10.0 mi South 8.1 mph - N/A   Clear
3:15 AM 62.6 °F 41.0 °F 45% 30.04 in 10.0 mi South 6.9 mph - N/A   Clear
3:35 AM 62.6 °F 41.0 °F 45% 30.04 in 10.0 mi South 8.1 mph - N/A   Clear
3:55 AM 62.6 °F 39.2 °F 42% 30.04 in 10.0 mi South 8.1 mph - N/A   Clear
4:15 AM 62.6 °F 39.2 °F 42% 30.04 in 10.0 mi South 8.1 mph - N/A   Clear
4:55 AM 62.6 °F 39.2 °F 42% 30.04 in 10.0 mi South 8.1 mph - N/A   Clear
5:15 AM 62.6 °F 39.2 °F 42% 30.05 in 10.0 mi South 8.1 mph - N/A   Clear
5:35 AM 62.6 °F 39.2 °F 42% 30.04 in 10.0 mi South 9.2 mph - N/A   Clear
5:55 AM 62.6 °F 39.2 °F 42% 30.04 in 10.0 mi South 8.1 mph - N/A   Clear
6:15 AM 62.6 °F 39.2 °F 42% 30.04 in 10.0 mi South 8.1 mph - N/A   Clear
6:35 AM 60.8 °F 39.2 °F 45% 30.05 in 10.0 mi South 6.9 mph - N/A   Clear
6:55 AM 60.8 °F 39.2 °F 45% 30.05 in 10.0 mi South 8.1 mph - N/A   Clear
7:15 AM 60.8 °F 37.4 °F 42% 30.05 in 10.0 mi SSE 6.9 mph - N/A   Clear
7:35 AM 62.6 °F 37.4 °F 39% 30.06 in 10.0 mi SSE 6.9 mph - N/A   Clear
7:55 AM 62.6 °F 37.4 °F 39% 30.06 in 10.0 mi South 6.9 mph - N/A   Clear
8:15 AM 60.8 °F 37.4 °F 42% 30.06 in 10.0 mi South 6.9 mph - N/A   Clear
8:35 AM 62.6 °F 37.4 °F 39% 30.06 in 10.0 mi South 10.4 mph - N/A   Clear
8:55 AM 64.4 °F 35.6 °F 34% 30.06 in 10.0 mi South 8.1 mph - N/A   Clear
9:15 AM 66.2 °F 35.6 °F 32% 30.06 in 10.0 mi South 11.5 mph 18.4 mph N/A   Clear
9:35 AM 69.8 °F 33.8 °F 27% 30.06 in 10.0 mi South 15.0 mph 18.4 mph N/A   Clear
9:55 AM 69.8 °F 33.8 °F 27% 30.06 in 10.0 mi South 15.0 mph - N/A   Clear
10:35 AM 73.4 °F 30.2 °F 20% 30.06 in 10.0 mi South 16.1 mph - N/A   Clear
10:55 AM 73.4 °F 28.4 °F 19% 30.06 in 10.0 mi South 15.0 mph - N/A   Clear
11:15 AM 75.2 °F 26.6 °F 17% 30.06 in 10.0 mi South 12.7 mph - N/A   Clear
11:35 AM 78.8 °F 26.6 °F 15% 30.05 in 10.0 mi South 11.5 mph 18.4 mph N/A   Clear
11:55 AM 78.8 °F 24.8 °F 14% 30.04 in 10.0 mi South 12.7 mph 18.4 mph N/A   Clear
12:15 PM 80.6 °F 21.2 °F 11% 30.04 in 10.0 mi South 11.5 mph 17.3 mph N/A   Clear
12:35 PM 80.6 °F 21.2 °F 11% 30.03 in 10.0 mi South 12.7 mph - N/A   Clear
12:55 PM 82.4 °F 19.4 °F 10% 30.03 in 10.0 mi South 15.0 mph 19.6 mph N/A   Clear
1:15 PM 82.4 °F 19.4 °F 10% 30.02 in 10.0 mi South 15.0 mph 21.9 mph N/A   Clear
1:35 PM 84.2 °F 19.4 °F 9% 30.01 in 10.0 mi South 17.3 mph 21.9 mph N/A   Clear
1:55 PM 84.2 °F 17.6 °F 8% 30.00 in 10.0 mi South 17.3 mph 25.3 mph N/A   Clear
2:35 PM 84.2 °F 8.6 °F 6% 29.99 in 10.0 mi South 18.4 mph 24.2 mph N/A   Clear
2:55 PM 84.2 °F 8.6 °F 6% 29.99 in 10.0 mi South 18.4 mph 26.5 mph N/A   Clear
3:15 PM 84.2 °F 8.6 °F 6% 29.98 in 10.0 mi South 17.3 mph 25.3 mph N/A   Clear
3:35 PM 84.2 °F 1.4 °F 4% 29.98 in 10.0 mi South 23.0 mph 28.8 mph N/A   Clear
3:55 PM 84.2 °F -5.8 °F 4% 29.97 in 10.0 mi South 15.0 mph 26.5 mph N/A   Clear
4:15 PM 84.2 °F -11.2 °F 4% 29.96 in 10.0 mi South 18.4 mph 25.3 mph N/A   Clear
4:35 PM 84.2 °F -5.8 °F 4% 29.96 in 10.0 mi SSE 12.7 mph 24.2 mph N/A   Clear
4:55 PM 84.2 °F -5.8 °F 4% 29.96 in 10.0 mi South 15.0 mph 23.0 mph N/A   Clear
5:15 PM 82.4 °F 1.4 °F 4% 29.96 in 10.0 mi SSE 17.3 mph 24.2 mph N/A   Clear
5:35 PM 82.4 °F -0.4 °F 4% 29.96 in 10.0 mi South 16.1 mph 21.9 mph N/A   Clear
5:55 PM 80.6 °F 1.4 °F 5% 29.96 in 10.0 mi South 16.1 mph 24.2 mph N/A   Clear
6:15 PM 80.6 °F 8.6 °F 6% 29.96 in 10.0 mi South 11.5 mph 17.3 mph N/A   Clear
6:35 PM 78.8 °F 10.4 °F 7% 29.96 in 10.0 mi South 10.4 mph - N/A   Clear
6:55 PM 75.2 °F 15.8 °F 11% 29.96 in 10.0 mi South 9.2 mph - N/A   Clear
7:15 PM 75.2 °F 15.8 °F 11% 29.97 in 10.0 mi SSE 10.4 mph - N/A   Clear
7:35 PM 73.4 °F 15.8 °F 11% 29.97 in 10.0 mi SSE 10.4 mph - N/A   Clear
8:15 PM 71.6 °F 19.4 °F 14% 29.98 in 10.0 mi SSE 5.8 mph - N/A   Clear
8:35 PM 69.8 °F 21.2 °F 16% 29.98 in 10.0 mi SE 6.9 mph - N/A   Clear
8:55 PM 69.8 °F 23.0 °F 17% 29.98 in 10.0 mi SE 5.8 mph - N/A   Clear
9:15 PM 68.0 °F 24.8 °F 20% 29.99 in 10.0 mi SSE 8.1 mph - N/A   Clear
9:35 PM 68.0 °F 24.8 °F 20% 29.99 in 10.0 mi SSE 9.2 mph - N/A   Clear
9:55 PM 69.8 °F 24.8 °F 18% 29.99 in 10.0 mi SSE 11.5 mph - N/A   Clear
10:15 PM 68.0 °F 24.8 °F 20% 29.99 in 10.0 mi SSE 9.2 mph - N/A   Clear
10:35 PM 66.2 °F 26.6 °F 23% 29.99 in 10.0 mi SSE 9.2 mph - N/A   Clear
10:55 PM 66.2 °F 26.6 °F 23% 29.99 in 10.0 mi SSE 10.4 mph - N/A   Clear
11:15 PM 66.2 °F 26.6 °F 23% 29.99 in 10.0 mi SSE 9.2 mph - N/A   Clear
11:35 PM 66.2 °F 26.6 °F 23% 29.99 in 10.0 mi SSE 9.2 mph - N/A   Clear
11:55 PM 66.2 °F 28.4 °F 24% 29.99 in 10.0 mi SSE 8.1 mph - N/A   Clear